Location: Grand Lay
(47.3253°N, 0.9468°E)
Time: 23:09:44
(UTC+00:00)

Cosmos 2154 Rocket - Pass Details

Date: 18 January 2026
Orbit: 965 x 997 km, 82.9° (Epoch: 16 February)

Event Time Altitude Azimuth Distance (km) Brightness Sun altitude
Rises 05:55:08 0° 204° (SSW) 3,692 6.9 -16.8°
Reaches altitude 10° 05:57:44 10° 209° (SSW) 2,744 6.2 -16.4°
Maximum altitude 06:03:51 51° 285° (WNW) 1,224 4.1 -15.4°
Drops below altitude 10° 06:09:57 10° 0° (N) 2,740 6.2 -14.4°
Sets 06:12:33 0° 6° (N) 3,687 6.9 -14.0°
